Location: Lafig�re
(44.4503°N, 4.0357°E)
Time: 15:31:39
(UTC+00:00)

Vanguard 2 Rocket - Pass Details

Date: 25 June 2021
Orbit: 555 x 3325 km, 32.9° (Epoch: 28 July)

Event Time Altitude Azimuth Distance (km) Brightness Sun altitude
Rises 20:25:49 0° 265° (W) 7,280 12.2 -8.1°
Reaches altitude 10° 20:30:53 10° 262° (W) 6,285 11.7 -8.8°
Maximum altitude 20:49:46 53° 193° (SSW) 3,301 9.5 -11.1°
Enters shadow 21:02:29 12° 123° (ESE) 4,440 9.8 -12.5°
